sat.trackr.live / text

‹ back to catalog

FENGYUN 3E

NORAD 49008 · 2021-062A

PAYLOAD ACTIVE UNKNOWN

§ Identity

Operator
Country
PRC
Launch date
2021-07-04
Launch site
JSC
Launch vehicle
Mass (kg)
RCS (m²)

Purposes: earth_obs

External: N2YO · Heavens-Above · Gunter

§ Orbital elements

Epoch: 2026-09-20T04:34:52.275648Z

Period
101.41 min
Inclination
98.7557°
Eccentricity
0.0001949
Mean motion
14.19912034 rev/d
Perigee alt
824.2 km
Apogee alt
827.1 km
Semi-major
7,203.8 km
B*
1.0327e-4
RAAN
265.5624°
Arg perigee
138.5365°
Mean anomaly
221.5959°
Rev number
27,006

§ Raw data

FENGYUN 3E1 49008U 21062A   26263.19088282  .00000175  00000+0  10327-3 0  99972 49008  98.7557 265.5624 0001949 138.5365 221.5959 14.19912034270060

JSON: /api/v1/satellites/49008 · /tle

For live sub-satellite position, see the globe view (requires WebGL).

§ Visibility from observer

Set your observer location to see the next 7 days of passes ≥ 10°. The values pass through the URL so the page stays shareable.

No JS? Fill the form by hand. The geolocation button needs JavaScript.

§ Radio — SatNOGS DB

ModeDescriptionDownlinkUplink
AHRPT Mode X - AHRPT 7.860 GHz
FM Mode X - DPT dumps (active over China & Sweden) 8.213 GHz
BPSK Telemetry 2.253 GHz
FM telemetry 2.219 GHz

4 transmitters · refreshed weekly from db.satnogs.org